Location: Mountain View
(37.3861°N, 122.0839°W)
Time: 01:47:39
(UTC-07:00)

Hubble Space Telescope - Visible Passes

Search period start: 27 June 2017 00:00
Search period end: 07 July 2017 00:00
Orbit: 538 x 541 km, 28.5° (Epoch: 26 June)

Date Brightness Start Highest point End Pass type
(mag) Time Alt. Az. Time Alt. Az. Time Alt. Az.
30 Jun 2.8 05:08:18 10° SSW 05:10:49 16° SSE 05:13:19 10° SE visible
01 Jul 2.6 04:58:02 11° SSW 05:00:37 18° SSE 05:03:26 10° SE visible
02 Jul 2.4 04:48:22 14° SSW 04:50:26 20° S 04:53:27 10° ESE visible
03 Jul 2.3 04:38:42 17° SSW 04:40:16 21° S 04:43:25 10° ESE visible
04 Jul 2.1 04:29:06 20° SSW 04:30:05 22° S 04:33:22 10° ESE visible
05 Jul 2.0 04:19:32 23° S 04:19:55 23° S 04:23:14 10° SE visible
06 Jul 2.1 04:10:04 23° S 04:10:04 23° S 04:13:05 10° SE visible
